Location: Friaudour
(46.0460°N, 1.2873°E)
Time: 01:23:03
(UTC+00:00)

Spot 4 Rocket - Visible Passes

Search period start: 24 October 2020 00:00
Search period end: 03 November 2020 00:00
Orbit: 775 x 782 km, 98.7° (Epoch: 23 October)

Date Brightness Start Highest point End Pass type
(mag) Time Alt. Az. Time Alt. Az. Time Alt. Az.
24 Oct 7.0 01:59:07 10° NE 01:59:30 11° NE 01:59:30 11° NE visible
24 Oct 5.2 03:37:10 10° N 03:39:59 32° N 03:39:59 32° N visible
24 Oct 6.0 05:19:30 10° NW 05:20:27 11° NW 05:20:27 11° NW visible
25 Oct 5.8 03:04:22 10° NNE 03:06:39 27° NNE 03:06:39 27° NNE visible
25 Oct 5.6 04:44:41 10° NNW 04:47:07 18° NW 04:47:07 18° NW visible
26 Oct 6.5 02:31:53 10° NNE 02:33:20 18° NE 02:33:20 18° NE visible
26 Oct 5.3 04:11:11 10° N 04:13:48 25° NNW 04:13:48 25° NNW visible
27 Oct 7.1 02:00:00 10° NE 02:00:01 10° NE 02:00:01 10° NE visible
27 Oct 5.5 03:38:04 10° N 03:40:29 28° N 03:40:29 28° N visible
27 Oct 6.0 05:20:30 10° NW 05:20:58 10° NW 05:20:58 10° NW visible
28 Oct 6.0 03:05:15 10° NNE 03:07:09 23° NNE 03:07:09 23° NNE visible
28 Oct 5.7 04:45:36 10° NNW 04:47:38 17° NW 04:47:38 17° NW visible
29 Oct 6.6 02:32:46 10° NNE 02:33:50 16° NE 02:33:50 16° NE visible
29 Oct 5.5 04:12:05 10° N 04:14:19 23° NNW 04:14:19 23° NNW visible
30 Oct 5.7 03:38:58 10° N 03:40:59 24° N 03:40:59 24° N visible
31 Oct 6.2 03:06:09 10° NNE 03:07:40 20° NNE 03:07:40 20° NNE visible
31 Oct 5.8 04:46:30 10° NNW 04:48:09 16° NNW 04:48:09 16° NNW visible
01 Nov 6.7 02:33:39 10° NNE 02:34:20 13° NE 02:34:20 13° NE visible
01 Nov 5.7 04:12:58 10° N 04:14:49 20° NNW 04:14:49 20° NNW visible
02 Nov 5.9 03:39:51 10° N 03:41:30 21° N 03:41:30 21° N visible
